Back to catalog

STARLINK-37483

AliveCommunicationsSSO
NORAD 68856·PAYLOAD·🇺🇸 United States

Launched Apr 26, 2026 from Vandenberg Space Force Base

Loading…

Next Passes (next 24 hours)

TLE

FreshSource: CelesTrak SupGP

Epoch: Sep 14, 2026, 21:04 UTC

1 68856C 26094T   26257.87826389  .00038508  00000+0  11961-2 0  2577
2 68856  97.2837 271.1177 0001663  87.7843  82.3620 15.33399851    19

Track STARLINK-37483 in real time with AllMySat

Download on the App Store